Location: Newark
(13.8625°N, 100.5144°E)
Time: 15:33:46
(UTC+00:00)

Hubble Space Telescope - Visible Passes

Search period start: 09 May 2021 00:00
Search period end: 19 May 2021 00:00
Orbit: 535 x 539 km, 28.5° (Epoch: 09 May)

Date Brightness Start Highest point End Pass type
(mag) Time Alt. Az. Time Alt. Az. Time Alt. Az.
12 May 2.5 22:23:17 10° SSW 22:26:40 25° SSE 22:30:03 10° E visible
13 May 2.0 22:12:00 10° SW 22:15:43 34° SSE 22:19:28 10° E visible
14 May 1.4 22:01:40 15° SW 22:04:47 47° SSE 22:08:45 10° ENE visible
15 May 0.9 21:51:27 23° SW 21:53:51 67° SSE 21:57:56 10° ENE visible
16 May 0.7 21:41:11 34° WSW 21:42:55 88° NNW 21:47:03 10° ENE visible
17 May 0.9 21:30:53 43° W 21:32:01 65° NNW 21:36:06 10° ENE visible
18 May 1.2 21:20:31 44° NW 21:21:07 48° NNW 21:25:05 10° NE visible
